Dewpoint
60 60 60 59 59 59 59 58 57 56 57 57 57 57 57 57 57 56 55 54 53 53 51 51 49 49 38 23 20 25 30 33 32 29 27 26 22 23 22 22 22 23 23 24 26 28 27
60 59 59 59 58 59 59 58 58 58 57 57 57 57 57 57 57 56 54 53 53 52 51 49 49 46 32 24 24 26 27 29 30 30 25 27 25 26 23 23 23 25 24 24 26 27 29
59 58 58 58 58 60 60 59 59 58 57 56 57 57 57 57 56 56 55 54 52 50 48 49 48 36 26 24 26 27 27 28 29 29 24 27 28 27 27 24 25 22 18 19 22 28 26
59 59 59 59 59 58 59 59 59 58 57 56 56 56 56 56 56 55 55 53 50 48 46 48 44 30 26 26 26 27 26 27 28 27 26 26 25 26 26 24 21 18 19 16 22 26 27
59 59 59 58 58 58 58 58 58 58 57 56 55 56 56 56 55 54 52 52 47 46 46 46 30 27 23 25 26 28 26 25 27 28 28 21 27 26 26 23 21 22 16 16 17 25 26
59 59 58 57 57 57 58 58 58 58 57 56 55 55 55 55 54 52 50 50 44 37 39 32 25 24 26 23 26 27 28 26 24 25 28 27 28 24 24 19 10 13 14 16 16 21 23
58 58 57 56 56 57 57 58 58 57 56 56 55 55 55 54 53 52 43 36 31 33 33 26 27 27 26 28 28 30 26 25 26 26 24 28 20 19 24 20 19 18 17 17 19 21 21
57 56 56 56 56 56 57 58 58 57 56 55 55 55 54 54 52 49 43 34 37 41 25 29 27 26 25 27 26 29 27 24 25 23 26 25 21 23 20 19 18 19 18 18 20 21 23
55 54 54 55 56 56 57 58 57 56 56 55 55 55 54 53 51 42 39 40 43 44 27 31 29 29 27 27 26 30 25 25 22 22 24 23 22 20 19 19 18 19 19 19 19 23 23
54 54 54 54 55 55 56 57 57 56 56 55 55 55 53 52 39 43 37 43 44 45 24 26 27 30 29 29 26 30 26 24 24 21 23 24 23 21 20 19 20 18 21 21 21 20 20
54 53 53 53 54 54 54 56 56 56 55 55 55 55 53 49 41 32 38 45 46 44 14 30 30 33 31 27 29 29 27 25 22 24 23 21 22 20 20 22 22 20 22 20 21 21 24
55 52 52 53 53 54 56 56 56 56 55 55 55 54 53 44 46 44 46 47 46 32 17 27 31 31 30 31 29 31 27 27 27 24 25 24 25 23 24 22 20 20 21 27 26 25 22
54 51 52 53 54 56 56 56 56 56 55 55 54 54 52 48 39 46 49 46 31 28 27 27 28 30 29 28 29 29 27 27 23 22 23 28 26 25 22 21 21 23 24 20 21 22 20
52 51 53 54 56 56 56 56 56 55 55 55 54 52 52 45 47 48 48 38 26 26 27 30 29 29 28 28 28 28 26 25 27 26 24 22 22 26 22 21 22 24 22 21 20 20 21
49 51 55 55 54 54 54 54 54 54 55 54 53 49 50 50 48 49 39 28 21 32 29 27 28 28 27 28 25 26 26 25 26 27 23 24 24 22 21 21 23 23 22 25 22 23 22
53 55 54 53 53 52 52 52 53 53 54 54 49 48 45 50 50 46 35 28 31 32 29 29 26 27 25 26 26 25 25 26 26 26 27 25 23 24 20 20 21 23 24 22 23 24 23
55 54 54 53 53 52 52 52 52 53 54 53 48 42 44 49 47 39 25 30 34 30 29 28 27 27 27 27 27 26 25 26 27 25 27 26 24 24 23 23 24 21 21 22 25 32 26
51 51 51 51 50 50 51 51 52 53 54 51 46 35 44 48 36 37 33 37 32 29 29 29 29 28 28 28 27 26 26 26 26 25 24 25 24 23 24 27 25 25 23 23 25 27 30
47 47 47 47 47 47 48 48 49 50 51 50 45 44 48 44 32 30 34 34 34 32 30 29 28 29 30 28 28 29 28 30 26 25 25 26 25 23 24 27 31 25 24 24 32 32 29
44 45 44 44 44 43 44 44 45 45 48 51 45 40 41 43 39 36 35 36 34 38 34 31 30 30 30 29 29 30 29 30 29 26 28 27 26 25 25 26 31 32 33 33 34 30 30
42 41 41 42 42 42 42 42 42 43 45 50 46 43 43 38 38 39 39 38 37 36 36 34 33 30 31 31 31 30 31 32 31 29 27 26 28 26 26 27 27 27 27 28 32 34 31
40 40 41 41 41 41 41 42 42 41 45 49 45 44 44 41 41 40 39 37 37 37 37 36 33 34 34 33 33 34 34 34 34 32 28 34 33 33 32 33 34 32 32 32 31 31 34
37 37 38 38 38 39 39 40 41 41 44 43 44 45 43 42 41 39 38 38 37 38 38 38 37 37 36 36 37 37 37 36 36 36 29 32 33 31 28 31 32 30 32 32 32 29 30
36 36 35 35 37 37 37 37 38 39 41 40 41 39 37 34 38 39 40 41 39 39 38 38 39 36 37 41 43 42 40 39 38 37 37 35 33 33 29 31 23 26 23 25 29 22 22
35 35 35 35 36 36 35 35 36 37 39 38 40 39 37 32 36 34 36 38 38 41 40 40 40 40 42 43 39 35 35 35 35 37 36 37 35 31 27 27 26 27 25 24 25 21 20
37 37 36 36 36 36 36 36 34 36 36 39 36 41 37 30 27 30 33 37 34 33 35 37 40 41 41 40 37 29 27 30 29 29 32 36 36 33 30 25 21 21 19 22 25 21 20
33 32 32 32 33 34 35 35 35 35 35 37 35 39 36 30 27 29 28 30 34 34 34 37 38 39 41 37 33 30 29 35 29 28 28 30 32 29 29 28 27 18 19 23 20 17 18
32 32 32 32 32 33 33 34 34 35 35 37 36 38 36 30 27 29 28 28 29 28 29 35 34 36 37 32 30 27 28 27 31 29 28 27 26 28 30 27 24 16 19 18 14 16 15
31 30 32 31 30 31 33 33 34 35 35 36 34 36 36 32 29 32 30 30 31 33 33 32 31 33 36 32 33 32 30 31 31 26 36 28 26 27 21 18 14 15 14 16 18 15 15
Wind_Speed
19 19 20 21 22 21 20 20 19 18 16 13 11 9 8 7 6 5 5 5 5 6 7 8 8 9 1 2 2 3 6 8 4 4 4 1 2 0 2 2 1 0 2 3 4 5 5
19 19 19 19 21 21 22 22 21 20 19 16 13 11 10 9 8 7 7 7 7 8 8 8 8 7 1 0 2 3 5 4 7 4 5 5 2 1 2 1 0 1 3 6 5 6 4
19 20 19 20 21 21 23 23 23 22 21 18 15 13 12 10 9 8 8 8 8 8 8 7 6 2 0 2 0 5 4 1 2 2 2 2 1 1 2 1 0 1 5 6 7 4 4
17 18 18 20 21 22 23 24 25 24 23 22 19 15 13 12 11 10 10 10 9 9 7 5 3 1 2 1 1 2 4 0 2 2 2 1 2 3 2 1 2 2 2 5 1 5 2
16 17 19 20 22 23 23 25 26 24 23 23 22 18 16 14 12 9 11 11 9 8 6 5 1 1 3 1 1 1 2 1 5 2 2 2 2 2 2 2 2 5 5 6 7 9 1
17 18 19 21 22 23 23 24 24 23 23 23 23 21 19 16 13 12 13 5 2 6 1 1 1 1 2 1 2 2 1 1 1 3 2 3 4 1 2 2 4 4 5 5 8 2 8
18 18 20 21 22 22 23 24 24 24 24 25 25 24 22 20 16 12 5 2 2 1 1 3 2 2 1 3 0 0 1 2 1 2 1 3 2 6 5 4 3 2 5 10 10 5 4
17 18 20 20 22 22 24 23 23 24 25 26 27 25 22 20 15 10 4 6 2 1 4 3 2 3 1 1 1 2 3 0 0 2 2 2 6 3 4 3 3 4 7 11 12 4 3
16 17 18 20 21 22 23 23 24 25 26 26 28 28 24 21 8 6 8 4 1 1 2 2 3 2 1 1 2 2 1 1 2 3 5 6 2 5 4 4 5 7 9 7 8 7 9
15 16 17 18 20 21 22 23 24 25 26 26 26 28 27 21 4 2 4 3 2 1 2 2 2 1 1 2 3 1 1 1 2 4 3 7 2 6 5 7 7 10 7 4 6 8 6
14 15 17 18 19 20 22 23 24 26 27 27 26 25 23 10 1 2 1 2 2 1 5 2 2 1 1 3 2 3 0 2 5 4 3 5 6 7 8 7 10 6 2 6 4 5 5
11 14 17 17 18 20 21 22 23 26 28 30 29 25 19 5 3 1 3 2 1 3 5 2 2 1 2 3 2 2 1 1 1 2 4 8 1 5 6 3 4 1 4 3 4 2 5
11 14 16 16 18 20 21 22 25 27 29 31 32 29 6 0 3 2 2 2 3 4 1 3 3 2 2 4 2 3 2 4 5 3 5 2 5 2 3 3 0 2 2 7 4 4 13
13 14 14 16 18 19 21 23 25 27 30 32 33 19 1 2 0 2 2 2 6 4 5 1 2 3 6 3 3 3 2 6 8 4 3 5 6 9 7 6 3 7 5 5 9 12 19
13 11 12 16 18 20 21 23 25 28 30 33 24 8 4 1 1 2 2 3 6 5 2 2 1 3 3 3 3 4 6 8 6 15 8 6 7 2 5 3 4 4 9 2 4 2 8
9 12 14 16 18 20 21 23 24 26 30 30 12 8 5 2 2 3 2 7 6 3 3 2 6 6 6 4 3 4 5 4 4 7 4 3 11 6 4 2 0 5 4 3 3 6 11
15 16 16 17 18 20 22 23 25 26 30 24 5 8 1 2 2 2 6 8 6 5 5 8 7 6 7 5 8 7 8 5 4 5 4 4 6 5 3 10 14 5 5 7 3 7 7
22 21 20 20 20 20 21 22 24 25 30 12 6 7 1 1 4 2 6 5 2 5 3 6 4 7 9 6 6 9 12 10 5 7 5 5 4 15 19 4 3 4 10 12 11 7 8
21 21 20 20 20 21 22 22 24 24 21 7 9 6 3 1 7 7 5 5 4 5 6 5 7 9 6 6 6 9 7 2 5 6 4 6 5 9 11 1 1 5 7 9 5 1 16
20 20 20 20 20 20 21 22 22 24 22 7 4 6 5 1 2 5 5 7 6 2 6 6 5 4 5 8 9 8 6 3 5 7 6 6 7 15 28 17 0 6 8 9 12 12 17
18 18 18 19 20 21 22 22 23 25 25 2 3 7 4 6 6 6 4 4 8 7 5 6 5 12 14 11 10 20 18 8 5 5 5 5 13 11 20 21 19 28 27 24 26 31 25
18 18 19 19 19 20 22 23 23 27 28 3 5 5 6 7 7 12 9 10 16 14 8 10 15 12 15 21 21 22 10 9 15 6 8 6 10 10 29 23 25 33 31 30 31 35 34
19 19 20 20 20 20 21 22 23 24 16 4 5 4 4 6 10 18 18 15 16 9 12 23 19 17 14 21 15 14 14 13 16 13 13 9 10 7 31 11 15 24 27 31 28 10 11
18 18 17 18 18 18 19 20 21 21 15 4 5 5 5 10 11 12 14 16 20 21 25 9 6 10 5 5 9 10 17 21 24 29 25 23 16 11 19 9 19 7 7 5 6 6 9
17 17 16 17 17 18 18 17 18 17 16 5 4 4 5 11 8 15 16 16 21 18 21 25 23 22 11 3 8 8 8 8 17 36 35 32 27 15 12 20 13 8 5 5 6 6 2
17 16 17 18 18 17 17 17 16 15 16 8 7 3 5 8 5 14 16 17 13 17 19 22 19 3 8 10 9 8 13 7 6 5 1 20 28 22 13 14 20 2 4 3 1 10 6
20 21 20 19 18 18 18 17 17 15 14 8 6 4 5 11 14 13 12 14 9 11 14 18 10 9 12 17 14 14 10 6 10 12 8 7 8 29 28 20 6 2 3 6 9 3 11
21 20 21 20 21 19 18 18 17 17 14 8 8 9 4 8 18 27 25 23 21 20 17 15 15 6 6 7 6 11 14 13 11 12 10 18 15 16 14 23 24 4 4 2 4 9 10
21 21 20 21 19 21 19 18 18 16 15 12 8 3 6 8 12 23 27 29 27 27 19 12 16 16 6 6 5 5 4 3 3 5 2 6 2 3 1 2 5 12 16 11 9 7 5
Wind_Direction
34 31 29 28 25 23 21 21 19 18 16 11 4 0 359 356 347 335 328 318 309 302 298 308 328 335 40 45 283 303 343 357 2 19 48 69 73 87 149 157 44 266 254 229 203 208 248
31 28 24 22 20 15 18 18 16 15 15 10 6 1 358 353 346 334 323 302 293 290 296 315 329 334 50 358 227 326 349 8 22 32 30 41 106 38 107 153 163 267 282 275 248 245 259
29 25 24 22 18 12 12 11 10 11 12 10 4 360 355 348 338 321 314 294 280 281 298 314 325 19 62 178 285 339 8 9 5 43 69 47 1 145 144 165 301 312 311 315 247 230 265
26 18 13 12 14 15 11 10 7 5 5 4 2 358 354 341 331 315 303 299 285 287 296 320 335 70 254 181 316 3 350 213 10 34 105 251 339 96 69 181 37 352 54 339 309 183 286
19 13 12 12 13 14 12 9 6 0 0 1 0 354 350 340 334 319 307 301 283 286 283 302 15 40 277 326 242 301 21 302 312 294 330 328 53 89 53 56 14 22 294 303 313 205 160
13 10 10 10 9 11 10 8 0 358 358 359 357 353 350 345 340 330 315 267 266 324 65 148 326 331 265 236 275 332 356 357 11 335 22 55 51 71 57 91 291 283 288 269 271 280 227
10 9 8 7 6 6 8 4 357 356 357 357 357 353 349 347 341 338 356 34 13 356 35 231 237 265 238 299 53 195 359 15 42 51 74 17 326 253 246 204 191 217 251 273 264 262 269
9 6 4 3 4 5 2 358 356 355 356 356 355 352 348 344 338 357 68 72 88 223 309 240 241 261 252 121 316 233 6 148 75 271 142 342 257 228 150 173 213 229 274 272 286 200 317
5 3 2 4 5 4 1 357 354 354 354 355 352 350 347 343 335 42 72 77 6 123 279 280 231 249 243 176 267 232 17 155 217 252 216 230 259 160 199 230 253 250 241 257 259 320 283
3 3 4 5 4 4 1 356 353 353 352 352 351 348 345 340 74 31 52 332 352 142 7 232 229 241 181 125 268 168 112 177 217 242 247 250 176 202 223 251 202 280 209 239 280 326 286
10 6 4 2 3 4 360 356 353 352 349 347 347 347 345 16 4 55 328 315 315 145 320 175 221 122 162 232 315 209 313 103 229 214 167 258 199 212 234 241 177 245 194 282 275 268 326
355 4 2 360 0 1 1 356 354 350 347 344 342 343 341 12 31 17 321 329 137 25 259 212 176 227 287 201 230 147 220 47 49 264 238 251 252 211 219 191 205 21 306 27 68 104 266
351 360 358 358 3 4 359 356 353 349 346 342 338 334 333 150 329 321 352 60 352 208 70 213 225 211 253 259 256 197 236 234 220 266 265 283 233 202 182 209 140 155 46 306 294 272 267
346 353 352 360 7 1 358 356 353 348 344 340 333 331 337 222 282 36 60 47 235 238 227 213 218 257 239 197 233 212 267 275 231 207 233 250 276 195 178 210 207 192 175 222 284 285 286
341 353 9 10 358 357 355 353 352 347 343 339 331 341 332 281 133 56 74 228 230 219 188 204 294 242 246 218 228 211 227 246 239 189 209 212 255 163 188 161 173 173 208 180 250 247 289
19 28 13 357 358 358 357 354 352 348 342 340 338 338 294 163 115 59 160 234 237 215 169 168 222 208 237 215 222 200 230 223 229 210 197 228 281 213 169 156 192 199 155 199 200 263 265
44 39 36 29 22 15 10 5 359 354 344 338 4 338 260 112 81 93 224 232 255 219 194 195 215 237 225 221 223 229 243 251 196 188 179 192 220 266 146 206 214 201 210 212 215 186 247
46 42 37 34 29 25 16 14 6 1 351 29 357 313 328 46 294 244 230 217 275 216 213 236 233 237 234 222 246 230 232 220 177 165 216 218 216 254 252 238 227 210 228 207 221 236 228
38 37 31 26 22 21 15 14 10 3 11 332 324 269 338 128 240 233 261 268 252 217 224 207 227 218 202 220 240 237 252 260 168 192 219 191 235 288 295 284 295 218 202 197 147 132 237
30 27 26 21 20 16 19 8 7 355 355 340 304 301 293 200 249 245 253 259 239 272 252 217 240 215 207 238 239 259 247 251 207 221 202 177 227 232 252 258 54 241 227 227 227 237 262
27 23 22 17 15 12 11 10 4 357 345 318 228 249 241 278 273 238 218 263 264 273 234 209 246 225 230 252 238 246 257 266 235 212 199 214 258 242 261 277 281 276 268 260 244 242 243
24 20 20 19 13 11 10 7 4 2 344 243 257 295 339 270 265 263 241 250 250 256 242 240 241 233 245 253 245 267 287 266 268 216 198 178 256 222 262 261 259 265 264 255 251 251 246
16 13 13 12 10 8 8 10 6 10 0 359 332 334 293 268 249 247 244 249 255 246 259 241 246 252 243 244 245 247 248 244 242 238 215 203 209 234 268 256 264 263 259 251 249 257 244
6 9 4 6 4 6 7 7 7 8 25 345 345 320 294 273 274 284 314 288 263 259 256 247 263 240 233 70 339 286 262 255 252 249 240 246 230 237 263 269 255 259 36 283 223 118 113
1 358 357 357 357 356 356 357 358 358 359 356 309 301 286 273 276 302 291 296 310 296 285 279 270 259 266 252 265 257 247 244 241 240 237 224 230 243 242 241 265 255 212 165 192 210 141
348 347 348 349 347 347 346 347 348 351 347 346 312 284 286 291 268 305 291 288 299 301 292 277 263 250 220 234 206 232 250 241 262 263 174 213 222 225 223 240 256 231 120 17 117 243 150
337 335 332 331 333 334 335 336 337 337 341 343 295 342 304 281 289 279 290 302 304 287 269 280 287 268 226 231 228 233 237 201 243 236 211 189 205 226 239 249 236 55 347 305 197 210 120
335 331 329 327 327 326 320 324 323 322 324 338 285 299 290 274 283 273 277 279 285 278 279 303 313 244 273 250 246 246 245 247 242 238 242 238 239 234 237 244 250 328 123 176 103 68 110
329 330 324 318 319 320 320 313 313 315 315 316 290 278 298 263 271 300 277 262 257 262 271 261 260 282 277 314 345 301 268 295 227 248 172 283 321 279 314 91 84 38 91 76 90 104 58